Regional Weather Roundup
Issued by NWS

Home | Current Version | Previous Version | Graphics & Text | Print | Product List | Glossary On
Versions: 1 2 3 4 5 6 7 8 9 10 11 12 13 14 15 16 17 18 19 20 21 22 23 24 25 26 27 28 29 30 31 32 33 34 35 36 37 38 39 40 41 42 43 44 45 46 47 48 49 50
000
ASUS45 KABQ 130301
RWRNM
NEW MEXICO REGIONAL WEATHER ROUNDUP
NATIONAL WEATHER SERVICE ALBUQUERQUE NM
800 PM MST FRI FEB 12 2016

NOTE: "FAIR" MEANS FEW OR NO CLOUDS BELOW 12,000 FEET AGL WITH NO
       SIGNIFICANT WEATHER OR OBSTRUCTIONS TO VISION.

      THIS PRODUCT IS RELEASED AS TWO VERSIONS.  ONE VERSION NEAR
      THE TOP OF THE HOUR CONTAINING PRELIMINARY DATA FROM ALBUQUERQUE
      AND OTHER STATIONS.  A FINAL VERSION WITH ADDITIONAL DATA IS
      ISSUED ABOUT 10 MINUTES AFTER THE HOUR.

NMZ501-503-504-510>518-130400-
NORTHWEST PLATEAU/NORTHCENTRAL MOUNTAINS

CITY           SKY/WX    TMP DP  RH WIND       PRES   REMARKS
FARMINGTON     CLOUDY    42  25  50 CALM      30.32S
SANTA FE       CLEAR     42  17  36 NE3       30.34R
TAOS           CLOUDY    36  25  64 E6        30.38R WCI  31
ANGEL FIRE     FAIR      35  22  58 CALM      30.43S

$$
NMZ402-403-502-505>509-130400-
WESTCENTRAL MOUNTAINS/SOUTHWEST MOUNTAINS

CITY           SKY/WX    TMP DP  RH WIND       PRES   REMARKS
GALLUP         CLEAR     34  20  56 CALM      30.36R
GRANTS         CLEAR     34   9  35 CALM      30.38R
SILVER CITY      N/A     39  10  30 NE5       30.33R

$$
NMZ407-409-411-412-130400-
SOUTHERN DESERTS

CITY           SKY/WX    TMP DP  RH WIND       PRES   REMARKS
DEMING         CLEAR     54  12  18 SW5       30.26R
HOLLOMAN AFB   CLOUDY    51   9  18 E7        30.24S
ALAMOGORDO     CLEAR     54   7  15 E7        30.26S
T OR C         CLEAR     56   0  10 SW3       30.27R

$$
NMZ519>523-130400-
CENTRAL VALLEYS/CENTRAL HIGHLANDS

CITY           SKY/WX    TMP DP  RH WIND       PRES   REMARKS
ALBUQUERQUE    CLEAR     54  19  25 NE6       30.31R
DOUBLE EAGLE   CLEAR     43  16  33 VRB5      30.34R
MORIARTY ARPT  FAIR      36  20  53 N3        30.37R
CLINES CORNERS CLOUDY    45  21  38 SE7       30.38R
BELEN          FAIR      46  11  24 CALM      30.30S
SOCORRO        NOT AVBL

$$
NMZ524>526-539-540-130400-
SOUTHCENTRAL MOUNTAINS

CITY           SKY/WX    TMP DP  RH WIND       PRES   REMARKS
RUIDOSO          N/A     48  16  27 E3        30.40S

$$
NMZ527>531-130400-
NORTHEAST HIGHLANDS/NORTHEAST PLAINS

CITY           SKY/WX    TMP DP  RH WIND       PRES   REMARKS
LAS VEGAS      CLOUDY    38  22  52 SW10      30.38R WCI  31
RATON          CLOUDY    42  20  41 SW7       30.35R
CLAYTON        CLOUDY    43  24  47 S10       30.32S

$$
NMZ532>537-130400-
EASTCENTRAL PLAINS

CITY           SKY/WX    TMP DP  RH WIND       PRES   REMARKS
TUCUMCARI      CLEAR     47  24  40 E5        30.29R
CANNON AFB     CLEAR     49  25  39 SE10      30.31R
CLOVIS AIRPORT CLEAR     43  21  42 E9        30.33S

$$
NMZ028-029-538-130400-
SOUTHEAST PLAINS

CITY           SKY/WX    TMP DP  RH WIND       PRES   REMARKS
ROSWELL        CLEAR     45  23  42 SW6       30.26R
ARTESIA        CLEAR     48  25  40 CALM      30.27S
CARLSBAD       CLEAR     44  27  51 W8        30.25R
HOBBS          CLEAR     46  27  46 E9        30.30R


$$



USA.gov is the U.S. government's official web portal to all federal, state and local government web resources and services.